Location: Baia Mare
(47.6567°N, 23.5850°E)
Time: 13:39:09
(UTC+03:00)

ISS - Pass Details

Date: 18 July 2019
Orbit: 409 x 418 km, 51.6° (Epoch: 21 July)

Event Time Altitude Azimuth Distance (km) Brightness Sun altitude
Rises 22:27:29 0° 227° (SW) 2,345 0.1 -9.9°
Reaches altitude 10° 22:29:37 10° 221° (SW) 1,484 -1.0 -10.1°
Maximum altitude 22:32:49 45° 148° (SSE) 572 -3.5 -10.5°
Drops below altitude 10° 22:36:01 10° 74° (ENE) 1,486 -1.2 -10.8°
Sets 22:38:09 0° 68° (ENE) 2,349 -0.1 -11.1°
